Location: Heilwood
(40.6210°N, 78.9150°W)
Time: 19:41:56
(UTC-04:00)

BREEZE-M DEB (TANK) - Visible Passes

Search period start: 23 April 2017 00:00
Search period end: 03 May 2017 00:00
Orbit: 317 x 15840 km, 49.5° (Epoch: 22 April)

Date Brightness Start Highest point End Pass type
(mag) Time Alt. Az. Time Alt. Az. Time Alt. Az.
23 Apr 8.3 03:16:28 10° SSE 04:05:54 24° SE 04:22:32 10° E visible
24 Apr 8.3 03:15:21 10° SSE 04:08:06 26° SE 04:24:49 10° E visible
25 Apr 8.2 03:14:26 10° S 04:10:17 28° SE 04:27:01 10° E visible
26 Apr 8.2 03:13:41 10° S 04:12:27 29° SE 04:29:08 10° E visible
27 Apr 8.1 03:13:06 10° S 04:14:35 31° SE 04:31:10 10° E visible
28 Apr 8.0 03:12:40 10° S 04:16:41 33° SE 04:33:09 10° ENE visible
29 Apr 7.9 03:12:23 10° S 04:18:47 35° SE 04:35:05 10° ENE visible
30 Apr 7.9 03:12:15 10° S 04:20:50 37° SE 04:36:57 10° ENE visible
01 May 7.8 03:12:14 10° S 04:22:53 39° SE 04:38:47 10° ENE visible
02 May 7.7 03:12:21 10° S 04:24:53 41° SE 04:40:34 10° ENE visible
